GW0544 Weather Reports


time (UTC)temp
C
wind
direction
speed
KPH
gust
KPH
rain 1hr
cm
rain 24hr
cm
rain mn
cm
humidity
%
barometer
mb
20260507104601 5 0 0.0 0.0 0.00 0.00 0.00 87 1017.6
20260507103052 5 0 0.0 4.8 0.00 0.00 0.00 88 1017.6
20260507101553 5 106 1.6 4.8 0.00 0.00 0.00 85 1017.7
20260507100059 6 0 0.0 3.2 0.00 0.00 0.00 87 1017.8
20260507094604 5 113 0.0 6.4 0.00 0.00 0.00 88 1017.9
20260507093052 5 117 1.6 3.2 0.00 0.00 0.00 86 1017.8
20260507091555 5 0 0.0 0.0 0.00 0.00 0.00 85 1018.1
20260507090053 6 0 0.0 0.0 0.00 0.00 0.00 85 1018.2
20260507084557 6 0 0.0 1.6 0.00 0.00 0.00 85 1018.4
20260507083057 7 0 1.6 4.8 0.00 0.00 0.00 88 1018.6
20260507081554 6 0 0.0 3.2 0.00 0.00 0.00 86 1018.8
20260507080056 6 0 0.0 0.0 0.00 0.00 0.00 84 1018.7
20260507074557 7 0 0.0 4.8 0.00 0.00 0.00 84 1018.6
20260507073058 7 0 0.0 4.8 0.00 0.00 0.00 84 1018.8
20260507071556 7 150 1.6 3.2 0.00 0.00 0.00 86 1018.9
20260507070106 7 0 0.0 0.0 0.00 0.00 0.00 84 1018.9
20260507064602 7 0 1.6 6.4 0.00 0.00 0.00 82 1018.9
20260507063108 8 0 0.0 0.0 0.00 0.00 0.00 82 1018.9
20260507061553 8 0 0.0 1.6 0.00 0.00 0.00 82 1019.0
20260507060107 8 0 0.0 0.0 0.00 0.00 0.00 82 1019.0
20260507054600 9 0 0.0 0.0 0.00 0.00 0.00 80 1019.1
20260507053059 10 0 0.0 3.2 0.00 0.00 0.00 80 1019.2
20260507051607 10 0 0.0 1.6 0.00 0.00 0.00 79 1019.3
20260507050109 11 0 0.0 0.0 0.00 0.00 0.00 78 1019.2
20260507044557 11 0 0.0 3.2 0.00 0.00 0.00 76 1019.1
20260507043049 12 221 1.6 4.8 0.00 0.00 0.00 76 1019.1
20260507041552 12 0 0.0 4.8 0.00 0.00 0.00 76 1019.1
20260507040103 13 223 0.0 3.2 0.00 0.00 0.00 75 1018.8
20260507034550 13 223 1.6 3.2 0.00 0.00 0.00 72 1018.7
20260507033053 14 0 0.0 3.2 0.00 0.00 0.00 71 1018.6
20260507031554 15 0 0.0 4.8 0.00 0.00 0.00 70 1018.5
20260507030055 15 225 3.2 6.4 0.00 0.00 0.00 68 1018.2
20260507024551 16 280 1.6 8.0 0.00 0.00 0.00 66 1018.0
20260507023054 17 0 0.0 9.7 0.00 0.00 0.00 64 1018.0
20260507021559 18 279 1.6 14.5 0.00 0.00 0.00 62 1017.7
20260507020052 19 304 6.4 16.1 0.00 0.00 0.00 59 1017.5
20260507014557 20 253 1.6 9.7 0.00 0.00 0.00 58 1017.4
20260507013050 20 360 4.8 19.3 0.00 0.00 0.00 57 1017.3
20260507011556 20 360 4.8 17.7 0.00 0.00 0.00 56 1017.3
20260507010053 20 311 9.7 20.9 0.00 0.00 0.00 55 1017.2
20260507004554 21 10 11.3 20.9 0.00 0.00 0.00 53 1017.0
20260507003055 21 310 8.0 19.3 0.00 0.00 0.00 52 1017.0
20260507001603 22 332 9.7 19.3 0.00 0.00 0.00 51 1016.7
20260507000058 22 339 8.0 19.3 0.00 0.00 0.00 50 1016.7
20260506234615 22 227 8.0 22.5 0.00 0.00 0.00 50 1016.7
20260506233055 22 265 6.4 20.9 0.00 0.00 0.00 51 1016.6
20260506231556 22 296 12.9 25.7 0.00 0.00 0.00 49 1016.7
20260506230058 23 311 11.3 24.1 0.00 0.00 0.00 48 1016.6
20260506224556 23 306 9.7 17.7 0.00 0.00 0.00 46 1016.7
20260506223059 23 31 9.7 20.9 0.00 0.00 0.00 43 1016.7
20260506221551 23 336 9.7 20.9 0.00 0.00 0.00 43 1016.8
20260506220052 23 317 11.3 22.5 0.00 0.00 0.00 42 1016.9
20260506214550 22 285 9.7 22.5 0.00 0.00 0.00 43 1017.0
20260506213054 23 323 9.7 20.9 0.00 0.00 0.00 45 1017.3
20260506211555 22 342 8.0 20.9 0.00 0.00 0.00 43 1017.3
20260506210054 22 360 6.4 17.7 0.00 0.00 0.00 42 1017.3
20260506204558 22 330 6.4 17.7 0.00 0.00 0.00 43 1017.4
20260506203052 22 350 11.3 17.7 0.00 0.00 0.00 43 1017.3
20260506201556 22 350 8.0 22.5 0.00 0.00 0.00 42 1017.3
20260506200109 22 57 9.7 19.3 0.00 0.00 0.00 41 1017.5
20260506194611 22 13 3.2 17.7 0.00 0.00 0.00 41 1017.5
20260506193052 22 330 6.4 22.5 0.00 0.00 0.00 46 1017.8
20260506191556 21 226 3.2 17.7 0.00 0.00 0.00 48 1018.1
20260506190052 21 339 4.8 12.9 0.00 0.00 0.00 44 1018.1
20260506184602 20 348 3.2 16.1 0.00 0.00 0.00 48 1018.3
20260506183103 20 29 1.6 16.1 0.00 0.00 0.00 49 1018.5
20260506181559 20 288 4.8 17.7 0.00 0.00 0.00 51 1018.6
20260506180053 20 245 3.2 11.3 0.00 0.00 0.00 54 1018.7
20260506174552 20 0 1.6 16.1 0.00 0.00 0.00 54 1018.8
20260506173055 19 235 1.6 14.5 0.00 0.00 0.00 59 1018.8
20260506171559 18 157 3.2 11.3 0.00 0.00 0.00 62 1018.9
20260506170057 16 200 4.8 12.9 0.00 0.00 0.00 64 1018.9
20260506164557 15 176 1.6 8.0 0.00 0.03 0.00 68 1018.9
20260506163055 13 157 1.6 6.4 0.00 0.03 0.00 70 1018.9
20260506161603 12 157 3.2 11.3 0.00 0.03 0.00 76 1019.0
20260506160055 11 209 1.6 4.8 0.00 0.03 0.00 84 1018.8
20260506154556 9 0 0.0 4.8 0.00 0.03 0.00 83 1018.9
20260506153058 8 83 0.0 4.8 0.00 0.03 0.00 89 1019.0
20260506151605 8 0 0.0 4.8 0.00 0.03 0.00 88 1019.3
20260506150106 7 0 1.6 9.7 0.00 0.03 0.00 90 1019.2
20260506144612 7 94 3.2 9.7 0.00 0.05 0.00 92 1019.1
20260506143057 7 88 1.6 4.8 0.00 0.05 0.00 92 1019.1
20260506141554 5 0 0.0 6.4 0.00 0.05 0.00 91 1019.1
20260506140111 3 92 1.6 4.8 0.00 0.05 0.00 90 1019.0
20260506134555 3 0 1.6 4.8 0.00 0.13 0.00 90 1018.8
20260506133059 3 0 0.0 4.8 0.00 0.13 0.00 90 1018.6
20260506131601 2 0 0.0 1.6 0.00 0.13 0.00 89 1018.5
20260506130138 2 0 0.0 3.2 0.00 0.13 0.00 89 1018.3
20260506124600 2 0 0.0 3.2 0.00 0.25 0.00 89 1018.2
20260506123052 2 0 0.0 4.8 0.00 0.25 0.00 89 1018.1
20260506121551 1 0 0.0 0.0 0.00 0.25 0.00 89 1018.1
20260506120053 1 0 0.0 3.2 0.00 0.25 0.00 89 1018.1
20260506114557 0 0 0.0 0.0 0.00 0.33 0.00 88 1018.0
20260506113103 0 155 0.0 3.2 0.00 0.33 0.00 87 1018.0
20260506111554 0 0 0.0 3.2 0.00 0.33 0.00 86 1018.0